This is the latest recevied weather packets stored in our database for station/object VK5FR. If no packets are shown the sender has not sent any weather packets the latest 1 day(s).
| Time | Temp. | Humidity | Pressure | Rain* | Wind** | Luminosity | Snow |
|---|---|---|---|---|---|---|---|
| 1778081259 | 12.78° C | 65% | 1024.9 hPa | 0 mm | - | - | - |
| 1778080048 | 12.78° C | 64% | 1024.9 hPa | 0 mm | - | - | - |
| 1778079139 | 13.33° C | 61% | 1024.7 hPa | 0 mm | - | - | - |
| 1778078533 | 13.33° C | 60% | 1024.7 hPa | 0 mm | - | - | - |
| 1778076720 | 12.78° C | 58% | 1024.5 hPa | 0 mm | - | - | - |
| 1778076114 | 13.33° C | 58% | 1024.6 hPa | 0 mm | - | - | - |
| 1778075508 | 13.33° C | 57% | 1024.9 hPa | 0 mm | - | - | - |
| 1778075204 | 13.33° C | 57% | 1024.6 hPa | 0 mm | - | - | - |
| 1778074900 | 13.33° C | 57% | 1024.6 hPa | 0 mm | - | - | - |
| 1778073992 | 13.33° C | 58% | 1024.5 hPa | 0 mm | - | - | - |
| 1778073082 | 13.33° C | 61% | 1024.6 hPa | 0 mm | - | - | - |
| 1778072779 | 13.33° C | 62% | 1024.4 hPa | 0 mm | - | - | - |
| 1778071872 | 13.33° C | 63% | 1024.3 hPa | 0 mm | - | - | - |
| 1778069149 | 12.78° C | 71% | 1023.9 hPa | 0 mm | - | - | - |
| 1778068846 | 13.33° C | 70% | 1024 hPa | 0 mm | - | - | - |
| 1778068544 | 13.33° C | 69% | 1023.9 hPa | 0 mm | - | - | - |
| 1778068242 | 13.33° C | 69% | 1023.7 hPa | 0 mm | - | - | - |
| 1778066426 | 13.33° C | 74% | 1023.4 hPa | 0 mm | - | - | - |
| 1778066124 | 13.33° C | 74% | 1023.3 hPa | 0 mm | - | - | - |
| 1778065821 | 13.33° C | 74% | 1023.5 hPa | 0 mm | - | - | - |
| 1778064911 | 13.33° C | 76% | 1023.4 hPa | 0 mm | - | - | - |
| 1778064609 | 13.33° C | 77% | 1023.4 hPa | 0 mm | - | - | - |
| 1778063398 | 13.33° C | 79% | 1023.1 hPa | 0 mm | - | - | - |
| 1778063096 | 13.33° C | 79% | 1023.3 hPa | 0 mm | - | - | - |
| 1778062490 | 13.33° C | 79% | 1023.2 hPa | 0 mm | - | - | - |
* Rain latest hour (hover to see other rain measurements)
** Current wind speed in m/s (hover to see current wind gust speed)